Location: Bartshausen
(51.8454°N, 9.8167°E)
Time: 23:51:57
(UTC+00:00)

USA 267 - Pass Details

Date: 08 November 2025
Orbit: 1100 x 1108 km, 123.0° (Epoch: 21 November)

Event Time Altitude Azimuth Distance (km) Brightness Sun altitude
Rises 04:53:17 0° 68° (ENE) 3,924 7.2 -14.7°
Reaches altitude 10° 04:55:47 10° 65° (ENE) 2,964 6.4 -14.3°
Maximum altitude 05:02:14 65° 346° (NNW) 1,205 3.4 -13.4°
Enters shadow 05:07:39 15° 268° (W) 2,578 4.6 -12.5°
